User: anonymous   Login
Location: Unspecified
(0.0000°N, 0.0000°E)
Time: 23:21:06
(UTC+00:00)
Language:

Courier 1B - Orbit

View from above orbital plane
View from above orbital plane
View from above satellite
View from above satellite

Ground track
Ground track

The orbit data is extracted from the following two-line orbital elements,

1    58U 60013A   17018.92505839 +.00000105 +00000-0 +25210-4 0  9991
2    58 028.3283 293.4535 0165051 197.5130 161.9670 13.46307064770644
Epoch (UTC): 18 January 2017 22:12:05
Eccentricity: 0.0165051
inclination: 28.3283°
perigee height: 962 km
apogee height: 1209 km
right ascension of ascending node: 293.4535°
argument of perigee: 197.5130°
revolutions per day: 13.46307064
mean anomaly at epoch: 161.9670°
orbit number at epoch: 77064

The dashed part of the orbit path shows where the satellite is in the earth's shadow,  

DLR